Location: Newark
(44.1667°N, 8.2500°E)
Time: 13:47:23
(UTC+00:00)

Envisat - Pass Details

Date: 18 November 2019
Orbit: 764 x 766 km, 98.1° (Epoch: 13 December)

Event Time Altitude Azimuth Distance (km) Brightness Sun altitude
Rises 17:51:49 0° 181° (S) 3,219 6.3 -20.3°
Reaches altitude 10° 17:54:11 10° 187° (S) 2,297 5.6 -20.7°
Maximum altitude 17:59:04 48° 261° (W) 998 4.0 -21.6°
Drops below altitude 10° 18:04:00 10° 336° (NNW) 2,312 5.7 -22.4°
Sets 18:06:24 0° 342° (NNW) 3,243 6.4 -22.9°
